Location: Coed Ely
(51.5661°N, 3.4150°W)
Time: 01:51:39
(UTC+00:00)

CZ-2D R/B - Pass Details

Date: 28 January 2021
Orbit: 520 x 538 km, 97.4° (Epoch: 28 February)

Event Time Altitude Azimuth Distance (km) Brightness Sun altitude
Rises 18:35:31 0° 176° (S) 2,664 6.9 -15.3°
Reaches altitude 10° 18:37:39 10° 180° (S) 1,776 6.0 -15.7°
Maximum altitude 18:41:26 56° 260° (W) 636 4.0 -16.3°
Drops below altitude 10° 18:45:13 10° 339° (NNW) 1,782 6.1 -16.8°
Sets 18:47:22 0° 344° (NNW) 2,674 6.9 -17.2°
